TimePDT,TemperatureF,Dew PointF,Humidity,Sea Level PressureIn,VisibilityMPH,Wind Direction,Wind SpeedMPH,Gust SpeedMPH,PrecipitationIn,Events,Conditions,WindDirDegrees,DateUTC
12:53 AM,88.0,72.0,59,29.65,10.0,SSE,15.0,-,N/A,,Clear,150,2013-07-01 07:53:00
1:53 AM,87.1,70.0,57,29.69,10.0,ESE,12.7,23.0,N/A,,Clear,120,2013-07-01 08:53:00
2:53 AM,87.1,71.1,59,29.69,10.0,SE,12.7,-,N/A,,Clear,140,2013-07-01 09:53:00
3:53 AM,88.0,72.0,59,29.71,10.0,SSE,10.4,-,N/A,,Clear,160,2013-07-01 10:53:00
4:53 AM,87.1,72.0,61,29.70,10.0,South,4.6,-,N/A,,Clear,180,2013-07-01 11:53:00
5:53 AM,84.9,72.0,65,29.74,10.0,NNW,6.9,-,N/A,,Clear,340,2013-07-01 12:53:00
6:53 AM,82.9,71.1,67,29.73,10.0,Calm,Calm,-,N/A,,Clear,0,2013-07-01 13:53:00
7:53 AM,86.0,73.0,65,29.75,10.0,WNW,4.6,-,N/A,,Clear,290,2013-07-01 14:53:00
8:53 AM,91.9,71.1,50,29.75,10.0,NNW,6.9,-,N/A,,Clear,330,2013-07-01 15:53:00
9:53 AM,91.9,71.1,50,29.75,10.0,WNW,3.5,-,N/A,,Clear,300,2013-07-01 16:53:00
10:53 AM,97.0,71.1,43,29.75,10.0,Calm,Calm,-,N/A,,Clear,0,2013-07-01 17:53:00
11:53 AM,99.0,71.1,40,29.74,10.0,SE,4.6,-,N/A,,Clear,140,2013-07-01 18:53:00
12:53 PM,102.9,70.0,34,29.73,10.0,SE,6.9,-,N/A,,Clear,130,2013-07-01 19:53:00
1:53 PM,106.0,68.0,29,29.70,10.0,Variable,6.9,-,N/A,,Clear,0,2013-07-01 20:53:00
2:53 PM,109.0,66.9,26,29.68,10.0,SE,12.7,-,N/A,,Clear,140,2013-07-01 21:53:00
3:53 PM,109.9,62.1,21,29.66,10.0,SW,10.4,-,N/A,,Partly Cloudy,220,2013-07-01 22:53:00
4:53 PM,111.0,59.0,18,29.64,10.0,SSW,6.9,-,N/A,,Scattered Clouds,200,2013-07-01 23:53:00
5:53 PM,111.0,57.0,17,29.63,10.0,Calm,Calm,-,N/A,,Mostly Cloudy,0,2013-07-02 00:53:00
6:53 PM,107.1,66.0,27,29.64,10.0,SE,10.4,-,N/A,,Mostly Cloudy,130,2013-07-02 01:53:00
7:53 PM,102.0,55.9,22,29.66,10.0,WSW,9.2,-,N/A,,Scattered Clouds,250,2013-07-02 02:53:00
8:53 PM,97.0,55.0,24,29.68,10.0,WSW,8.1,-,N/A,,Clear,240,2013-07-02 03:53:00
9:53 PM,95.0,53.1,24,29.69,10.0,West,10.4,-,N/A,,Clear,260,2013-07-02 04:53:00
10:53 PM,93.9,53.1,25,29.70,10.0,WSW,11.5,-,N/A,,Clear,250,2013-07-02 05:53:00
11:53 PM,91.0,53.1,27,29.71,10.0,West,8.1,-,N/A,,Clear,280,2013-07-02 06:53:00